Weather History for Detroit Metro, MI

Change the Weather History Date:

Tuesday, March 12, 2013

  Actual Average Record
Temperature  
Mean Temperature 34 °F 36 °F  
Max Temperature 40 °F 44 °F 75 °F (1990)
Min Temperature 28 °F 27 °F 4 °F (1896)
Degree Days  
Heating Degree Days 31 29  
Month to date heating degree days 368 377  
Since 1 July heating degree days 4653 4930  
Cooling Degree Days 0 0  
Month to date cooling degree days 0 0  
Year to date cooling degree days 0 0  
Moisture  
Dew Point 28 °F    
Average Humidity 75    
Maximum Humidity 85    
Minimum Humidity 64    
Precipitation  
Precipitation 0.01 in 0.07 in 1.13 in (1877)
Month to date precipitation 0.30 0.85  
Year to date precipitation 6.58 4.83  
Snow  
Snow T in 0.20 in 2.40 in (1984)
Month to date snowfall 0.2 3.4  
Since 1 July snowfall 44.7 37.3  
Snow Depth 0.00 in    
Sea Level Pressure  
Sea Level Pressure 29.85 in    
Wind  
Wind Speed 15 mph (SW)    
Max Wind Speed 23 mph    
Max Gust Speed 30 mph    
Visibility 9 miles    
Events Snow    
T = Trace of Precipitation, MM = Missing Value Source: NWS Daily Summary

Daily Weather History Graph

Daily Weather History Graph

Search for Another Location

Airport:

Trip Planner

Search our weather history database for the weather conditions in past years. The results will help you decide how hot, cold, wet, or windy it might be!

Date:

Astronomy

Mar. 12, 2013 Rise Set
Actual Time 7:49 AM EDT 7:36 PM EDT
Civil Twilight 7:22 AM EDT 8:04 PM EDT
Nautical Twilight 6:49 AM EDT 8:37 PM EDT
Astronomical Twilight 6:16 AM EDT 9:10 PM EDT
Moon 7:54 AM EDT 8:53 PM EDT
Length of Visible Light 12h 42m
Length of Day
11h 46m
New Moon, 1% of the Moon is Illuminated
Mar 12
New Moon
Mar 19
First Quarter
Mar 27
Full
Apr 3
Last Quarter
Apr 10
New

Hourly Weather History & Observations

Time (EDT) Temp. Windchill Dew Point Humidity Pressure Visibility Wind Dir Wind Speed Gust Speed Precip Events Conditions
12:49 AM 37.4 °F 27.8 °F 30.2 °F 75% 29.72 in 10.0 mi SW 17.3 mph - N/A   Overcast
12:53 AM 37.9 °F 29.2 °F 30.9 °F 76% 29.73 in 10.0 mi SW 15.0 mph - N/A   Overcast
1:28 AM 37.4 °F 27.8 °F 30.2 °F 75% 29.72 in 10.0 mi SSW 17.3 mph 25.3 mph N/A   Overcast
1:53 AM 37.9 °F 29.2 °F 30.9 °F 76% 29.73 in 10.0 mi SSW 15.0 mph 24.2 mph N/A   Overcast
2:53 AM 37.9 °F 28.2 °F 30.0 °F 73% 29.75 in 10.0 mi SW 18.4 mph 29.9 mph N/A   Overcast
3:53 AM 37.0 °F 27.4 °F 28.9 °F 73% 29.77 in 10.0 mi SSW 17.3 mph - N/A   Overcast
4:38 AM 35.6 °F 27.1 °F 30.2 °F 81% 29.76 in 10.0 mi SW 12.7 mph - N/A   Overcast
4:53 AM 36.0 °F 26.7 °F 30.0 °F 79% 29.78 in 10.0 mi SW 15.0 mph 21.9 mph N/A   Overcast
5:53 AM 36.0 °F 27.1 °F 30.0 °F 79% 29.79 in 8.0 mi SSW 13.8 mph - 0.00 in Snow Light Snow
6:17 AM 35.6 °F 26.2 °F 30.2 °F 81% 29.79 in 7.0 mi SSW 15.0 mph - 0.00 in Snow Light Snow
6:53 AM 35.1 °F 26.9 °F 30.0 °F 82% 29.81 in 7.0 mi SW 11.5 mph - 0.00 in Snow Light Snow
7:30 AM 35.6 °F 27.5 °F 28.4 °F 75% 29.80 in 8.0 mi SW 11.5 mph - 0.00 in Snow Light Snow
7:49 AM 35.6 °F 25.5 °F 28.4 °F 75% 29.81 in 8.0 mi SSW 17.3 mph 20.7 mph 0.00 in Snow Light Snow
7:53 AM 36.0 °F 26.7 °F 28.9 °F 76% 29.82 in 8.0 mi SW 15.0 mph - 0.00 in Snow Light Snow
8:53 AM 36.0 °F 28.5 °F 28.0 °F 73% 29.84 in 9.0 mi SW 10.4 mph - 0.00 in   Overcast
9:53 AM 36.0 °F 26.7 °F 28.9 °F 76% 29.86 in 10.0 mi SW 15.0 mph - N/A   Overcast
10:53 AM 36.0 °F 26.7 °F 30.0 °F 79% 29.87 in 10.0 mi SSW 15.0 mph 21.9 mph 0.00 in   Overcast
11:17 AM 35.6 °F 26.6 °F 30.2 °F 81% 29.86 in 10.0 mi SW 13.8 mph - N/A   Overcast
11:53 AM 36.0 °F 27.1 °F 28.9 °F 76% 29.87 in 9.0 mi SW 13.8 mph 24.2 mph 0.00 in Snow Light Snow
12:49 PM 37.4 °F 27.8 °F 28.4 °F 70% 29.86 in 10.0 mi SW 17.3 mph - 0.00 in   Overcast
12:53 PM 37.9 °F 28.5 °F 28.0 °F 68% 29.87 in 10.0 mi SW 17.3 mph - 0.00 in Snow Light Snow
1:48 PM 37.4 °F 27.8 °F 28.4 °F 70% 29.87 in 4.0 mi SW 17.3 mph - 0.00 in Snow Light Snow
1:53 PM 36.0 °F 25.0 °F 28.9 °F 76% 29.89 in 4.0 mi SW 20.7 mph 25.3 mph 0.00 in Snow Light Snow
2:53 PM 37.9 °F 27.1 °F 28.0 °F 68% 29.88 in 4.0 mi SW 23.0 mph 27.6 mph 0.00 in Snow Light Snow
3:53 PM 37.0 °F 26.7 °F 26.1 °F 65% 29.88 in 10.0 mi SW 19.6 mph - 0.00 in   Overcast
4:53 PM 36.0 °F 26.7 °F 25.0 °F 64% 29.90 in 10.0 mi SSW 15.0 mph - N/A   Overcast
5:48 PM 35.6 °F 25.2 °F 24.8 °F 65% 29.89 in 10.0 mi SW 18.4 mph 25.3 mph N/A   Overcast
5:53 PM 36.0 °F 26.7 °F 24.1 °F 62% 29.91 in 10.0 mi SW 15.0 mph 25.3 mph N/A   Overcast
6:00 PM 35.6 °F 25.5 °F 24.8 °F 65% 29.89 in 10.0 mi SW 17.3 mph 23.0 mph N/A   Overcast
6:53 PM 35.1 °F 25.2 °F 24.1 °F 64% 29.92 in 10.0 mi SW 16.1 mph - N/A   Overcast
7:53 PM 35.1 °F 25.5 °F 23.0 °F 61% 29.93 in 9.0 mi SW 15.0 mph 21.9 mph 0.00 in Snow Light Snow
8:53 PM 34.0 °F 24.6 °F 26.1 °F 73% 29.94 in 4.0 mi SW 13.8 mph 23.0 mph 0.00 in Snow Light Snow
9:53 PM 33.1 °F 24.4 °F 26.1 °F 75% 29.95 in 10.0 mi SW 11.5 mph - 0.01 in   Scattered Clouds
10:53 PM 30.9 °F 23.5 °F 25.0 °F 79% 29.94 in 10.0 mi SSW 8.1 mph - N/A   Scattered Clouds
11:53 PM 30.0 °F 23.2 °F 26.1 °F 85% 29.94 in 10.0 mi South 6.9 mph - N/A   Overcast